Location: Blazny
(46.0612°N, 84.4033°W)
Time: 10:53:58
(UTC-04:00)

ARIANE 6 FM1 Upper Stage - Pass Details

Date: 18 September 2024
Orbit: 564 x 594 km, 62.0° (Epoch: 03 October)

Event Time Altitude Azimuth Distance (km) Brightness Sun altitude
Rises 06:24:37 0° 315° (NW) 2,838 5.9 -10.4°
Reaches altitude 10° 06:26:54 10° 312° (NW) 1,935 5.1 -10.0°
Maximum altitude 06:31:11 56° 234° (SW) 715 2.9 -9.3°
Drops below altitude 10° 06:35:28 10° 157° (SSE) 1,926 5.6 -8.5°
Sets 06:37:44 0° 153° (SSE) 2,823 6.5 -8.1°
